Time,TemperatureF,DewpointF,PressureIn,WindDirection,WindDirectionDegrees,WindSpeedMPH,WindSpeedGustMPH,Humidity,HourlyPrecipIn,Conditions,Clouds,dailyrainin,SoftwareType,DateUTC
2013-08-22 00:02:00,66.4,59.4,28.08,ESE,113,0.0,0.0,79,0.00,,,0.00,WSDL version 420,2013-08-22 04:02:00,
2013-08-22 00:07:00,66.2,59.5,28.08,ESE,113,0.0,0.0,79,0.00,,,0.00,WSDL version 420,2013-08-22 04:07:00,
2013-08-22 00:12:00,66.2,59.5,28.08,ESE,113,0.0,0.0,79,0.00,,,0.00,WSDL version 420,2013-08-22 04:12:00,
2013-08-22 00:17:00,66.1,59.3,28.08,ESE,113,0.0,0.0,78,0.00,,,0.00,WSDL version 420,2013-08-22 04:17:00,
2013-08-22 00:22:00,66.2,59.5,28.08,ESE,113,0.0,0.0,79,0.00,,,0.00,WSDL version 420,2013-08-22 04:22:00,
2013-08-22 00:27:00,66.2,59.5,28.08,ESE,113,0.0,0.0,79,0.00,,,0.00,WSDL version 420,2013-08-22 04:27:00,
2013-08-22 00:32:00,66.1,59.4,28.08,ESE,113,0.0,0.0,79,0.00,,,0.00,WSDL version 420,2013-08-22 04:32:00,
2013-08-22 00:37:00,66.0,59.3,28.08,ESE,113,0.0,0.0,79,0.00,,,0.00,WSDL version 420,2013-08-22 04:37:00,
2013-08-22 00:42:00,66.0,59.7,28.11,ESE,113,0.0,0.0,80,0.00,,,0.00,WSDL version 420,2013-08-22 04:42:00,
2013-08-22 00:47:00,66.0,59.7,28.11,ESE,113,0.0,0.0,80,0.00,,,0.00,WSDL version 420,2013-08-22 04:47:00,
2013-08-22 00:52:00,66.0,59.7,28.11,ESE,113,0.0,0.0,80,0.00,,,0.00,WSDL version 420,2013-08-22 04:52:00,
2013-08-22 00:57:00,66.0,59.6,28.08,ESE,113,0.0,0.0,80,0.00,,,0.00,WSDL version 420,2013-08-22 04:57:00,
2013-08-22 01:02:00,65.7,59.2,28.08,ESE,113,0.0,0.0,79,0.00,,,0.00,WSDL version 420,2013-08-22 05:02:00,
2013-08-22 01:07:00,65.7,59.2,28.08,ESE,113,0.0,0.0,80,0.00,,,0.00,WSDL version 420,2013-08-22 05:07:00,
2013-08-22 01:12:00,65.5,58.9,28.08,ESE,113,0.0,0.0,80,0.00,,,0.00,WSDL version 420,2013-08-22 05:12:00,
2013-08-22 01:17:00,65.3,59.0,28.08,ESE,113,0.0,0.0,80,0.00,,,0.00,WSDL version 420,2013-08-22 05:17:00,
2013-08-22 01:22:00,65.3,58.9,28.08,ESE,113,0.0,0.0,80,0.00,,,0.00,WSDL version 420,2013-08-22 05:22:00,
2013-08-22 01:27:00,65.3,59.0,28.08,ESE,113,0.0,0.0,80,0.00,,,0.00,WSDL version 420,2013-08-22 05:27:00,
2013-08-22 01:32:00,65.3,59.0,28.08,ESE,113,0.0,0.0,80,0.00,,,0.00,WSDL version 420,2013-08-22 05:32:00,
2013-08-22 01:37:00,65.3,59.0,28.08,ESE,113,0.0,0.0,80,0.00,,,0.00,WSDL version 420,2013-08-22 05:37:00,
2013-08-22 01:42:00,65.4,59.1,28.11,ESE,113,0.0,0.0,80,0.00,,,0.00,WSDL version 420,2013-08-22 05:42:00,
2013-08-22 01:47:00,65.4,59.1,28.11,ESE,113,0.0,0.0,80,0.00,,,0.00,WSDL version 420,2013-08-22 05:47:00,
2013-08-22 01:52:00,65.3,59.0,28.11,ESE,113,0.0,0.0,80,0.00,,,0.00,WSDL version 420,2013-08-22 05:52:00,
2013-08-22 01:57:00,65.2,58.9,28.08,ESE,113,0.0,0.0,80,0.00,,,0.00,WSDL version 420,2013-08-22 05:57:00,
2013-08-22 02:02:00,64.9,58.6,28.08,ESE,113,0.0,0.0,80,0.00,,,0.00,WSDL version 420,2013-08-22 06:02:00,
2013-08-22 02:07:00,65.0,58.7,28.08,ESE,113,0.0,0.0,80,0.00,,,0.00,WSDL version 420,2013-08-22 06:07:00,
2013-08-22 02:12:00,65.0,58.9,28.11,ESE,113,0.0,0.0,81,0.00,,,0.00,WSDL version 420,2013-08-22 06:12:00,
2013-08-22 02:17:00,65.0,58.9,28.11,ESE,113,0.0,0.0,80,0.00,,,0.00,WSDL version 420,2013-08-22 06:17:00,
2013-08-22 02:22:00,64.9,58.8,28.11,ESE,113,0.0,0.0,81,0.00,,,0.00,WSDL version 420,2013-08-22 06:22:00,
2013-08-22 02:27:00,64.9,59.0,28.08,ESE,113,0.0,0.0,81,0.00,,,0.00,WSDL version 420,2013-08-22 06:27:00,
2013-08-22 02:32:00,64.9,59.0,28.08,ESE,113,0.0,0.0,81,0.00,,,0.00,WSDL version 420,2013-08-22 06:32:00,
2013-08-22 02:37:00,64.9,58.9,28.08,ESE,113,0.0,0.0,81,0.00,,,0.00,WSDL version 420,2013-08-22 06:37:00,
2013-08-22 02:42:00,64.9,59.0,28.08,ESE,113,0.0,0.0,81,0.00,,,0.00,WSDL version 420,2013-08-22 06:42:00,
2013-08-22 02:47:00,64.9,59.0,28.08,ESE,113,0.0,0.0,81,0.00,,,0.00,WSDL version 420,2013-08-22 06:47:00,
2013-08-22 02:54:00,64.9,58.9,28.08,ESE,113,0.0,0.0,81,0.00,,,0.00,WSDL version 420,2013-08-22 06:54:00,
2013-08-22 02:59:00,64.8,58.8,28.08,ESE,113,0.0,0.0,81,0.00,,,0.00,WSDL version 420,2013-08-22 06:59:00,
2013-08-22 03:04:00,64.8,58.8,28.08,ESE,113,0.0,0.0,81,0.00,,,0.00,WSDL version 420,2013-08-22 07:04:00,
2013-08-22 03:09:00,64.8,58.8,28.08,ESE,113,0.0,0.0,81,0.00,,,0.00,WSDL version 420,2013-08-22 07:09:00,
2013-08-22 03:14:00,64.9,59.0,28.08,ESE,113,0.0,0.0,81,0.00,,,0.00,WSDL version 420,2013-08-22 07:14:00,
2013-08-22 03:19:00,65.1,59.5,28.08,ESE,113,0.0,0.0,82,0.00,,,0.00,WSDL version 420,2013-08-22 07:19:00,
2013-08-22 03:24:00,65.1,59.6,28.08,ESE,113,0.0,0.0,82,0.00,,,0.00,WSDL version 420,2013-08-22 07:24:00,
2013-08-22 03:29:00,64.9,59.4,28.08,ESE,113,0.0,0.0,82,0.00,,,0.00,WSDL version 420,2013-08-22 07:29:00,
2013-08-22 03:34:00,64.9,59.4,28.08,ESE,113,0.0,0.0,82,0.00,,,0.00,WSDL version 420,2013-08-22 07:34:00,
2013-08-22 03:39:00,64.9,59.4,28.08,ESE,113,0.0,0.0,82,0.00,,,0.00,WSDL version 420,2013-08-22 07:39:00,
2013-08-22 03:44:00,64.9,59.4,28.08,ESE,113,0.0,0.0,82,0.00,,,0.00,WSDL version 420,2013-08-22 07:44:00,
2013-08-22 03:49:00,65.1,59.5,28.08,ESE,113,0.0,0.0,82,0.00,,,0.00,WSDL version 420,2013-08-22 07:49:00,
2013-08-22 03:54:00,65.1,59.6,28.08,ESE,113,0.0,0.0,82,0.00,,,0.00,WSDL version 420,2013-08-22 07:54:00,
2013-08-22 03:59:00,65.1,59.6,28.08,ESE,113,0.0,0.0,82,0.00,,,0.00,WSDL version 420,2013-08-22 07:59:00,
2013-08-22 04:04:00,65.1,59.7,28.08,ESE,113,0.0,0.0,83,0.00,,,0.00,WSDL version 420,2013-08-22 08:04:00,
2013-08-22 04:09:00,65.1,59.9,28.08,ESE,113,0.0,0.0,83,0.00,,,0.00,WSDL version 420,2013-08-22 08:09:00,
2013-08-22 04:14:00,65.1,59.9,28.08,ESE,113,0.0,0.0,83,0.00,,,0.00,WSDL version 420,2013-08-22 08:14:00,
2013-08-22 04:19:00,65.2,60.0,28.08,SSW,203,0.0,0.0,83,0.00,,,0.00,WSDL version 420,2013-08-22 08:19:00,
2013-08-22 04:24:00,65.2,60.1,28.08,SSW,203,0.0,0.0,83,0.00,,,0.00,WSDL version 420,2013-08-22 08:24:00,
2013-08-22 04:29:00,65.3,60.2,28.08,SSW,203,0.0,0.0,84,0.00,,,0.00,WSDL version 420,2013-08-22 08:29:00,
2013-08-22 04:34:00,65.5,60.7,28.08,SSW,203,0.0,0.0,84,0.00,,,0.00,WSDL version 420,2013-08-22 08:34:00,
2013-08-22 04:39:00,65.5,60.7,28.08,SSW,203,0.0,0.0,84,0.00,,,0.00,WSDL version 420,2013-08-22 08:39:00,
2013-08-22 04:44:00,65.5,60.7,28.08,SSW,203,0.0,0.0,84,0.00,,,0.00,WSDL version 420,2013-08-22 08:44:00,
2013-08-22 04:49:00,65.5,61.0,28.08,SSW,203,0.0,0.0,86,0.00,,,0.00,WSDL version 420,2013-08-22 08:49:00,
2013-08-22 04:54:00,65.7,61.2,28.08,SSW,203,0.0,0.0,86,0.00,,,0.00,WSDL version 420,2013-08-22 08:54:00,
2013-08-22 04:59:00,65.7,61.2,28.05,SSW,203,0.0,0.0,86,0.00,,,0.00,WSDL version 420,2013-08-22 08:59:00,
2013-08-22 05:04:00,65.7,61.2,28.05,SSW,203,0.0,0.0,86,0.00,,,0.00,WSDL version 420,2013-08-22 09:04:00,
2013-08-22 05:09:00,65.8,61.3,28.05,SSW,203,0.0,0.0,86,0.00,,,0.00,WSDL version 420,2013-08-22 09:09:00,
2013-08-22 05:14:00,65.8,61.4,28.05,SSW,203,0.0,0.0,86,0.00,,,0.00,WSDL version 420,2013-08-22 09:14:00,
2013-08-22 05:19:00,65.8,61.4,28.05,SSW,203,0.0,0.0,86,0.00,,,0.00,WSDL version 420,2013-08-22 09:19:00,
2013-08-22 05:24:00,65.9,61.7,28.05,SSW,203,0.0,0.0,87,0.00,,,0.00,WSDL version 420,2013-08-22 09:24:00,
2013-08-22 05:29:00,66.0,61.9,28.08,SSW,203,0.0,0.0,87,0.00,,,0.00,WSDL version 420,2013-08-22 09:29:00,
2013-08-22 05:34:00,66.0,61.9,28.08,SSW,203,0.0,0.0,87,0.00,,,0.00,WSDL version 420,2013-08-22 09:34:00,
2013-08-22 05:39:00,66.2,62.1,28.08,SSW,203,0.0,0.0,87,0.00,,,0.00,WSDL version 420,2013-08-22 09:39:00,
2013-08-22 05:44:00,66.2,62.1,28.08,SSW,203,0.0,0.0,87,0.00,,,0.00,WSDL version 420,2013-08-22 09:44:00,
2013-08-22 05:49:00,66.2,62.1,28.08,SSW,203,0.0,0.0,87,0.00,,,0.00,WSDL version 420,2013-08-22 09:49:00,
2013-08-22 05:54:00,66.2,62.1,28.08,SSW,203,0.0,0.0,87,0.00,,,0.00,WSDL version 420,2013-08-22 09:54:00,
2013-08-22 05:59:00,66.2,62.1,28.08,SSW,203,0.0,0.0,87,0.00,,,0.00,WSDL version 420,2013-08-22 09:59:00,
2013-08-22 06:04:00,66.2,62.1,28.08,SSW,203,0.0,0.0,87,0.00,,,0.00,WSDL version 420,2013-08-22 10:04:00,
2013-08-22 06:09:00,66.2,62.5,28.08,SSW,203,0.0,0.0,88,0.00,,,0.00,WSDL version 420,2013-08-22 10:09:00,
2013-08-22 06:14:00,66.2,62.5,28.08,SSW,203,0.0,0.0,88,0.00,,,0.00,WSDL version 420,2013-08-22 10:14:00,
2013-08-22 06:19:00,66.3,62.5,28.08,SSW,203,0.0,0.0,88,0.00,,,0.00,WSDL version 420,2013-08-22 10:19:00,
2013-08-22 06:24:00,66.3,62.6,28.08,SSW,203,0.0,0.0,88,0.00,,,0.00,WSDL version 420,2013-08-22 10:24:00,
2013-08-22 06:29:00,66.4,62.6,28.08,SSW,203,0.0,0.0,88,0.00,,,0.00,WSDL version 420,2013-08-22 10:29:00,
2013-08-22 06:34:00,66.4,62.6,28.08,SSW,203,0.0,0.0,88,0.00,,,0.00,WSDL version 420,2013-08-22 10:34:00,
2013-08-22 06:39:00,66.4,62.6,28.08,SSW,203,0.0,0.0,88,0.00,,,0.00,WSDL version 420,2013-08-22 10:39:00,
2013-08-22 06:44:00,66.4,62.6,28.08,SSW,203,0.0,0.0,88,0.00,,,0.00,WSDL version 420,2013-08-22 10:44:00,
2013-08-22 06:49:00,66.6,62.9,28.08,SSW,203,0.0,0.0,89,0.00,,,0.00,WSDL version 420,2013-08-22 10:49:00,
2013-08-22 08:28:00,67.5,64.8,28.08,NNW,338,0.0,0.9,91,0.00,,,0.00,WSDL version 420,2013-08-22 12:28:00,
2013-08-22 08:33:00,67.5,64.8,28.08,NNW,338,0.0,0.0,91,0.00,,,0.00,WSDL version 420,2013-08-22 12:33:00,
2013-08-22 08:38:00,67.6,65.0,28.08,ENE,60,0.0,0.0,91,0.00,,,0.00,WSDL version 420,2013-08-22 12:38:00,
2013-08-22 08:43:00,67.6,65.0,28.08,NW,315,0.0,0.0,91,0.00,,,0.00,WSDL version 420,2013-08-22 12:43:00,
2013-08-22 08:48:00,67.9,65.4,28.08,NW,315,0.0,0.0,91,0.00,,,0.00,WSDL version 420,2013-08-22 12:48:00,
2013-08-22 08:53:00,68.1,65.4,28.08,North,8,0.0,2.0,91,0.00,,,0.00,WSDL version 420,2013-08-22 12:53:00,
2013-08-22 08:58:00,68.3,65.6,28.08,NNE,17,0.2,2.0,91,0.00,,,0.00,WSDL version 420,2013-08-22 12:58:00,
2013-08-22 09:03:00,68.4,65.7,28.08,SW,233,0.0,0.9,91,0.00,,,0.00,WSDL version 420,2013-08-22 13:03:00,
2013-08-22 09:08:00,68.4,65.7,28.08,SSW,203,0.0,2.7,91,0.00,,,0.00,WSDL version 420,2013-08-22 13:08:00,
2013-08-22 09:13:00,68.4,65.7,28.08,WNW,293,0.0,2.7,91,0.00,,,0.00,WSDL version 420,2013-08-22 13:13:00,
2013-08-22 09:18:00,68.7,66.0,28.08,NE,45,0.0,0.0,91,0.00,,,0.00,WSDL version 420,2013-08-22 13:18:00,
2013-08-22 09:23:00,68.8,66.1,28.08,SSW,203,0.0,0.0,91,0.00,,,0.00,WSDL version 420,2013-08-22 13:23:00,
2013-08-22 09:28:00,68.9,66.2,28.08,NNW,338,0.0,1.3,91,0.00,,,0.00,WSDL version 420,2013-08-22 13:28:00,
2013-08-22 09:33:00,69.1,66.4,28.08,East,83,0.0,1.3,91,0.00,,,0.00,WSDL version 420,2013-08-22 13:33:00,
2013-08-22 09:38:00,69.1,66.4,28.08,WSW,248,0.0,0.0,91,0.00,,,0.00,WSDL version 420,2013-08-22 13:38:00,
2013-08-22 09:43:00,69.3,66.6,28.08,SW,233,0.4,1.3,91,0.00,,,0.00,WSDL version 420,2013-08-22 13:43:00,
2013-08-22 09:48:00,69.4,66.7,28.08,NNW,330,0.0,1.3,91,0.00,,,0.00,WSDL version 420,2013-08-22 13:48:00,
2013-08-22 09:53:00,69.6,66.6,28.08,West,270,0.0,1.1,90,0.00,,,0.00,WSDL version 420,2013-08-22 13:53:00,
2013-08-22 09:58:00,69.6,66.6,28.08,WNW,287,0.6,2.5,90,0.00,,,0.00,WSDL version 420,2013-08-22 13:58:00,
2013-08-22 10:03:00,69.9,66.8,28.08,SSW,203,0.0,2.5,90,0.00,,,0.00,WSDL version 420,2013-08-22 14:03:00,
2013-08-22 10:08:00,70.1,66.8,28.08,SW,214,1.2,3.1,89,0.00,,,0.00,WSDL version 420,2013-08-22 14:08:00,
2013-08-22 10:13:00,70.2,66.8,28.08,South,188,0.0,3.1,89,0.00,,,0.00,WSDL version 420,2013-08-22 14:13:00,
2013-08-22 10:18:00,70.6,67.1,28.08,West,270,0.6,1.1,89,0.00,,,0.00,WSDL version 420,2013-08-22 14:18:00,
2013-08-22 10:23:00,70.8,67.0,28.08,West,263,0.9,1.3,88,0.00,,,0.00,WSDL version 420,2013-08-22 14:23:00,
2013-08-22 10:28:00,71.2,67.3,28.08,NW,304,2.1,2.9,88,0.00,,,0.00,WSDL version 420,2013-08-22 14:28:00,
2013-08-22 10:33:00,71.4,67.3,28.08,NW,323,0.5,2.9,87,0.00,,,0.00,WSDL version 420,2013-08-22 14:33:00,
2013-08-22 10:38:00,71.4,67.2,28.08,West,278,0.0,1.6,87,0.00,,,0.00,WSDL version 420,2013-08-22 14:38:00,
2013-08-22 10:43:00,71.5,66.9,28.08,WNW,285,1.9,2.2,84,0.00,,,0.00,WSDL version 420,2013-08-22 14:43:00,
2013-08-22 10:48:00,71.5,66.6,28.08,NNW,330,1.4,2.2,84,0.00,,,0.00,WSDL version 420,2013-08-22 14:48:00,
2013-08-22 10:53:00,71.8,66.5,28.08,NNW,338,2.7,3.6,83,0.00,,,0.00,WSDL version 420,2013-08-22 14:53:00,
2013-08-22 10:58:00,72.1,66.5,28.08,West,270,0.4,3.6,82,0.00,,,0.00,WSDL version 420,2013-08-22 14:58:00,
2013-08-22 11:03:00,72.6,66.9,28.08,West,281,1.0,2.5,82,0.00,,,0.00,WSDL version 420,2013-08-22 15:03:00,
2013-08-22 11:08:00,72.6,66.6,28.08,West,278,0.4,2.2,81,0.00,,,0.00,WSDL version 420,2013-08-22 15:08:00,
2013-08-22 11:13:00,72.9,66.7,28.08,SW,225,0.0,2.2,81,0.00,,,0.00,WSDL version 420,2013-08-22 15:13:00,
2013-08-22 11:18:00,73.2,66.8,28.08,WNW,293,1.1,2.5,80,0.00,,,0.00,WSDL version 420,2013-08-22 15:18:00,
2013-08-22 11:23:00,73.1,66.6,28.08,WNW,293,0.0,2.7,80,0.00,,,0.00,WSDL version 420,2013-08-22 15:23:00,
2013-08-22 11:28:00,73.2,66.3,28.08,NW,321,0.2,2.7,79,0.00,,,0.00,WSDL version 420,2013-08-22 15:28:00,
2013-08-22 11:33:00,73.0,66.1,28.08,NW,308,1.7,2.2,79,0.00,,,0.00,WSDL version 420,2013-08-22 15:33:00,
2013-08-22 11:38:00,73.0,66.0,28.08,SSW,203,1.0,2.0,78,0.00,,,0.00,WSDL version 420,2013-08-22 15:38:00,
2013-08-22 11:43:00,73.5,66.0,28.08,NNE,15,0.0,1.6,77,0.00,,,0.00,WSDL version 420,2013-08-22 15:43:00,
2013-08-22 11:48:00,73.5,66.0,28.08,South,169,0.0,1.1,77,0.00,,,0.00,WSDL version 420,2013-08-22 15:48:00,
2013-08-22 11:53:00,73.6,66.0,28.08,West,270,1.9,2.5,77,0.00,,,0.00,WSDL version 420,2013-08-22 15:53:00,
2013-08-22 11:58:00,74.5,66.6,28.08,West,276,2.1,3.1,76,0.00,,,0.00,WSDL version 420,2013-08-22 15:58:00,
2013-08-22 12:03:00,74.7,66.6,28.08,NW,315,1.8,3.1,76,0.00,,,0.00,WSDL version 420,2013-08-22 16:03:00,
2013-08-22 12:08:00,74.5,66.3,28.08,NW,308,0.8,2.5,75,0.00,,,0.00,WSDL version 420,2013-08-22 16:08:00,
2013-08-22 12:13:00,74.7,66.3,28.08,WSW,242,0.3,2.5,75,0.00,,,0.00,WSDL version 420,2013-08-22 16:13:00,
2013-08-22 12:18:00,75.5,66.5,28.08,North,8,0.7,2.9,73,0.00,,,0.00,WSDL version 420,2013-08-22 16:18:00,
2013-08-22 12:23:00,75.9,66.3,28.08,SW,214,1.2,2.9,72,0.00,,,0.00,WSDL version 420,2013-08-22 16:23:00,
2013-08-22 12:28:00,76.3,66.6,28.08,SW,225,1.3,2.7,72,0.00,,,0.00,WSDL version 420,2013-08-22 16:28:00,
2013-08-22 12:33:00,76.5,66.1,28.08,North,360,0.6,2.7,70,0.00,,,0.00,WSDL version 420,2013-08-22 16:33:00,
2013-08-22 12:38:00,76.9,66.1,28.08,SSW,203,1.2,2.7,69,0.00,,,0.00,WSDL version 420,2013-08-22 16:38:00,
2013-08-22 12:43:00,77.1,66.1,28.08,SSW,203,0.6,2.9,69,0.00,,,0.00,WSDL version 420,2013-08-22 16:43:00,
2013-08-22 12:48:00,77.2,65.8,28.05,West,270,0.0,3.1,68,0.00,,,0.00,WSDL version 420,2013-08-22 16:48:00,
2013-08-22 12:58:00,77.3,65.5,28.05,WNW,300,1.1,2.5,67,0.00,,,0.00,WSDL version 420,2013-08-22 16:58:00,
2013-08-22 13:03:00,77.4,65.6,28.05,SW,225,0.0,2.5,67,0.00,,,0.00,WSDL version 420,2013-08-22 17:03:00,
2013-08-22 13:08:00,77.5,65.6,28.05,West,270,0.0,2.5,66,0.00,,,0.00,WSDL version 420,2013-08-22 17:08:00,
2013-08-22 13:13:00,77.7,65.6,28.05,South,173,0.6,2.5,67,0.00,,,0.00,WSDL version 420,2013-08-22 17:13:00,
2013-08-22 13:18:00,78.0,65.7,28.05,WNW,285,1.0,2.0,66,0.00,,,0.00,WSDL version 420,2013-08-22 17:18:00,
2013-08-22 13:23:00,78.5,65.8,28.05,South,185,0.8,2.0,65,0.00,,,0.00,WSDL version 420,2013-08-22 17:23:00,
2013-08-22 13:28:00,79.0,65.8,28.05,North,11,0.4,2.0,64,0.00,,,0.00,WSDL version 420,2013-08-22 17:28:00,
2013-08-22 13:33:00,79.6,65.9,28.02,WNW,293,0.7,2.9,63,0.00,,,0.00,WSDL version 420,2013-08-22 17:33:00,
2013-08-22 13:38:00,78.9,64.9,28.02,North,354,1.5,2.9,63,0.00,,,0.00,WSDL version 420,2013-08-22 17:38:00,
2013-08-22 13:43:00,78.7,64.9,28.05,North,360,0.0,2.5,63,0.00,,,0.00,WSDL version 420,2013-08-22 17:43:00,
2013-08-22 13:48:00,79.4,65.4,28.05,South,188,1.3,2.0,62,0.00,,,0.00,WSDL version 420,2013-08-22 17:48:00,
2013-08-22 13:53:00,79.7,65.5,28.05,West,270,1.3,3.4,62,0.00,,,0.00,WSDL version 420,2013-08-22 17:53:00,
2013-08-22 13:58:00,79.6,65.4,28.05,ENE,75,2.8,3.4,62,0.00,,,0.00,WSDL version 420,2013-08-22 17:58:00,
2013-08-22 14:03:00,78.9,64.0,28.05,NNW,338,1.5,3.1,60,0.00,,,0.00,WSDL version 420,2013-08-22 18:03:00,
2013-08-22 14:08:00,79.6,65.0,28.02,SSW,208,0.2,2.2,61,0.00,,,0.00,WSDL version 420,2013-08-22 18:08:00,
2013-08-22 14:13:00,78.9,64.3,28.02,WNW,293,1.3,2.0,61,0.00,,,0.00,WSDL version 420,2013-08-22 18:13:00,
2013-08-22 14:18:00,78.1,63.6,28.02,SSW,203,2.0,2.0,61,0.00,,,0.00,WSDL version 420,2013-08-22 18:18:00,
2013-08-22 14:23:00,78.1,63.3,28.02,NW,309,0.6,2.5,60,0.00,,,0.00,WSDL version 420,2013-08-22 18:23:00,
2013-08-22 14:28:00,78.3,63.6,28.02,WNW,293,0.0,2.5,61,0.00,,,0.00,WSDL version 420,2013-08-22 18:28:00,
2013-08-22 14:33:00,78.3,63.8,28.02,WNW,293,0.3,1.3,61,0.00,,,0.00,WSDL version 420,2013-08-22 18:33:00,
2013-08-22 14:38:00,78.6,64.2,28.02,WNW,293,0.0,1.3,61,0.00,,,0.00,WSDL version 420,2013-08-22 18:38:00,
2013-08-22 14:43:00,79.0,64.2,28.02,WNW,300,0.6,2.9,61,0.00,,,0.00,WSDL version 420,2013-08-22 18:43:00,
2013-08-22 14:48:00,79.4,64.2,28.02,SE,143,1.0,2.9,60,0.00,,,0.00,WSDL version 420,2013-08-22 18:48:00,
2013-08-22 14:53:00,79.3,63.7,28.02,NW,304,1.7,2.7,59,0.00,,,0.00,WSDL version 420,2013-08-22 18:53:00,
2013-08-22 14:58:00,78.7,63.3,28.02,WSW,253,1.1,2.5,60,0.00,,,0.00,WSDL version 420,2013-08-22 18:58:00,
2013-08-22 15:03:00,78.6,63.6,28.02,NW,308,1.0,2.9,60,0.00,,,0.00,WSDL version 420,2013-08-22 19:03:00,
2013-08-22 15:08:00,79.3,63.8,28.02,West,263,1.6,2.9,59,0.00,,,0.00,WSDL version 420,2013-08-22 19:08:00,
2013-08-22 15:13:00,80.0,64.2,28.02,NNW,338,2.3,2.7,58,0.00,,,0.00,WSDL version 420,2013-08-22 19:13:00,
2013-08-22 15:18:00,80.1,63.7,28.02,NW,323,1.7,2.7,57,0.00,,,0.00,WSDL version 420,2013-08-22 19:18:00,
2013-08-22 15:23:00,79.8,63.4,28.02,SW,236,0.0,2.5,57,0.00,,,0.00,WSDL version 420,2013-08-22 19:23:00,
2013-08-22 15:28:00,79.8,63.5,28.02,WNW,293,2.1,2.5,57,0.00,,,0.00,WSDL version 420,2013-08-22 19:28:00,
2013-08-22 15:33:00,79.3,62.9,28.02,WNW,293,0.7,2.5,58,0.00,,,0.00,WSDL version 420,2013-08-22 19:33:00,
2013-08-22 15:38:00,78.9,62.9,28.02,NNW,338,2.0,2.0,58,0.00,,,0.00,WSDL version 420,2013-08-22 19:38:00,
2013-08-22 15:43:00,78.7,62.6,28.02,NNW,338,1.0,2.7,58,0.00,,,0.00,WSDL version 420,2013-08-22 19:43:00,
2013-08-22 15:48:00,78.5,63.0,27.99,NW,315,1.4,2.7,59,0.00,,,0.00,WSDL version 420,2013-08-22 19:48:00,
2013-08-22 15:53:00,79.4,64.2,27.99,NE,45,1.6,2.7,60,0.00,,,0.00,WSDL version 420,2013-08-22 19:53:00,
2013-08-22 15:58:00,80.1,64.9,27.99,NW,315,1.7,2.9,60,0.00,,,0.00,WSDL version 420,2013-08-22 19:58:00,
2013-08-22 16:03:00,80.3,64.7,27.99,SSW,203,1.5,3.6,59,0.00,,,0.00,WSDL version 420,2013-08-22 20:03:00,
2013-08-22 16:08:00,80.7,64.6,27.99,NNE,23,2.9,3.6,58,0.00,,,0.00,WSDL version 420,2013-08-22 20:08:00,
2013-08-22 16:13:00,80.6,64.0,27.99,NNE,15,0.7,3.1,57,0.00,,,0.00,WSDL version 420,2013-08-22 20:13:00,
2013-08-22 16:18:00,80.6,63.6,27.99,North,8,1.4,3.1,56,0.00,,,0.00,WSDL version 420,2013-08-22 20:18:00,
2013-08-22 16:23:00,80.9,64.0,27.99,NW,326,1.7,3.1,56,0.00,,,0.00,WSDL version 420,2013-08-22 20:23:00,
2013-08-22 16:28:00,80.6,63.5,27.99,North,360,1.6,2.9,56,0.00,,,0.00,WSDL version 420,2013-08-22 20:28:00,
2013-08-22 16:33:00,80.7,63.4,27.99,SE,124,1.5,3.1,56,0.00,,,0.00,WSDL version 420,2013-08-22 20:33:00,
2013-08-22 16:38:00,81.1,63.6,27.99,WNW,285,3.4,3.6,55,-99.99,,,-99.99,WSDL version 420,2013-08-22 20:38:00,
2013-08-22 16:43:00,81.1,63.6,27.99,SE,124,2.3,3.6,56,0.00,,,0.00,WSDL version 420,2013-08-22 20:43:00,
2013-08-22 16:48:00,81.2,63.5,27.99,SE,146,1.9,2.9,55,0.00,,,0.00,WSDL version 420,2013-08-22 20:48:00,
2013-08-22 16:53:00,81.4,63.3,27.99,ENE,75,1.8,3.1,55,0.00,,,0.00,WSDL version 420,2013-08-22 20:53:00,
2013-08-22 16:58:00,81.4,62.9,27.99,NE,34,2.2,3.1,53,0.00,,,0.00,WSDL version 420,2013-08-22 20:58:00,
2013-08-22 17:03:00,81.1,62.6,27.99,WSW,248,2.2,2.7,53,0.00,,,0.00,WSDL version 420,2013-08-22 21:03:00,
2013-08-22 17:08:00,81.3,62.6,27.99,SE,146,1.6,3.6,53,0.00,,,0.00,WSDL version 420,2013-08-22 21:08:00,
2013-08-22 17:13:00,81.3,62.2,27.99,NNW,338,1.3,3.6,53,0.00,,,0.00,WSDL version 420,2013-08-22 21:13:00,
2013-08-22 17:18:00,81.3,62.0,27.99,NE,56,1.9,3.1,52,0.00,,,0.00,WSDL version 420,2013-08-22 21:18:00,
2013-08-22 17:23:00,81.3,62.0,27.99,SSW,203,1.6,3.1,52,0.00,,,0.00,WSDL version 420,2013-08-22 21:23:00,
2013-08-22 17:28:00,81.1,61.6,27.99,NNE,23,2.0,2.7,52,0.00,,,0.00,WSDL version 420,2013-08-22 21:28:00,
2013-08-22 17:38:00,81.2,61.6,27.99,SE,141,2.9,3.1,51,0.00,,,0.00,WSDL version 420,2013-08-22 21:38:00,
2013-08-22 17:43:00,81.1,61.3,27.96,East,90,0.9,3.1,51,0.00,,,0.00,WSDL version 420,2013-08-22 21:43:00,
2013-08-22 17:48:00,81.1,61.3,27.96,ESE,113,0.4,2.9,51,0.00,,,0.00,WSDL version 420,2013-08-22 21:48:00,
2013-08-22 17:53:00,81.1,61.3,27.96,East,83,2.2,2.9,51,0.00,,,0.00,WSDL version 420,2013-08-22 21:53:00,
2013-08-22 17:58:00,81.0,61.8,27.96,ESE,120,1.9,3.1,52,-99.99,,,-99.99,WSDL version 420,2013-08-22 21:58:00,
2013-08-22 18:03:00,80.7,61.1,27.96,ENE,68,1.7,3.1,52,0.00,,,0.00,WSDL version 420,2013-08-22 22:03:00,
2013-08-22 18:08:00,80.4,61.0,27.96,ENE,75,1.3,2.9,52,0.00,,,0.00,WSDL version 420,2013-08-22 22:08:00,
2013-08-22 18:13:00,80.4,61.4,27.96,East,90,2.3,2.9,52,0.00,,,0.00,WSDL version 420,2013-08-22 22:13:00,
2013-08-22 18:23:00,80.1,60.9,27.96,North,6,1.4,3.4,52,0.00,,,0.00,WSDL version 420,2013-08-22 22:23:00,
2013-08-22 18:28:00,80.1,61.1,27.96,ENE,75,3.1,3.4,53,0.00,,,0.00,WSDL version 420,2013-08-22 22:28:00,
2013-08-22 18:33:00,80.4,61.4,27.96,ENE,68,0.9,3.4,52,0.00,,,0.00,WSDL version 420,2013-08-22 22:33:00,
2013-08-22 18:38:00,80.7,60.9,27.96,East,83,0.9,2.7,51,0.00,,,0.00,WSDL version 420,2013-08-22 22:38:00,
2013-08-22 18:43:00,80.4,60.6,27.96,SSW,195,1.7,2.5,51,0.00,,,0.00,WSDL version 420,2013-08-22 22:43:00,
2013-08-22 18:48:00,79.9,60.4,27.96,North,11,1.5,2.7,52,0.00,,,0.00,WSDL version 420,2013-08-22 22:48:00,
2013-08-22 18:53:00,79.4,60.3,27.96,South,186,1.3,2.9,53,0.00,,,0.00,WSDL version 420,2013-08-22 22:53:00,
2013-08-22 18:58:00,79.3,60.5,27.99,South,188,0.5,2.9,52,0.00,,,0.00,WSDL version 420,2013-08-22 22:58:00,
2013-08-22 19:03:00,78.9,59.8,27.99,South,173,1.3,2.7,52,0.00,,,0.00,WSDL version 420,2013-08-22 23:03:00,
2013-08-22 19:08:00,78.6,59.5,27.99,ENE,60,0.0,2.9,52,0.00,,,0.00,WSDL version 420,2013-08-22 23:08:00,
2013-08-22 19:13:00,78.4,59.7,27.99,NNE,15,0.0,2.9,53,0.00,,,0.00,WSDL version 420,2013-08-22 23:13:00,
2013-08-22 19:18:00,78.3,59.7,27.99,East,79,0.0,0.9,53,0.00,,,0.00,WSDL version 420,2013-08-22 23:18:00,
2013-08-22 19:23:00,78.0,60.0,27.99,SSE,165,0.0,0.0,54,0.00,,,0.00,WSDL version 420,2013-08-22 23:23:00,
2013-08-22 19:28:00,77.7,60.5,27.99,SSW,195,0.3,0.9,56,0.00,,,0.00,WSDL version 420,2013-08-22 23:28:00,
2013-08-22 19:38:00,77.0,60.8,27.99,SW,225,0.9,1.6,58,0.00,,,0.00,WSDL version 420,2013-08-22 23:38:00,
2013-08-22 19:43:00,76.5,60.6,27.99,South,180,2.1,2.7,58,0.00,,,0.00,WSDL version 420,2013-08-22 23:43:00,
2013-08-22 19:48:00,76.2,60.4,27.99,SSE,158,0.0,2.7,58,0.00,,,0.00,WSDL version 420,2013-08-22 23:48:00,
2013-08-22 19:53:00,75.9,60.1,27.99,WSW,240,0.0,1.3,58,0.00,,,0.00,WSDL version 420,2013-08-22 23:53:00,
2013-08-22 19:58:00,75.6,60.0,27.99,SE,143,1.2,1.3,59,0.00,,,0.00,WSDL version 420,2013-08-22 23:58:00,
2013-08-22 20:03:00,75.3,60.0,27.99,NNE,23,0.0,1.3,59,0.00,,,0.00,WSDL version 420,2013-08-23 00:03:00,
2013-08-22 20:08:00,75.0,60.0,27.99,NNE,30,0.0,0.0,60,0.00,,,0.00,WSDL version 420,2013-08-23 00:08:00,
2013-08-22 20:13:00,74.7,59.9,27.99,South,188,0.0,0.0,60,0.00,,,0.00,WSDL version 420,2013-08-23 00:13:00,
2013-08-22 20:18:00,74.5,59.9,27.99,ENE,60,0.4,1.1,61,0.00,,,0.00,WSDL version 420,2013-08-23 00:18:00,
2013-08-22 20:23:00,74.2,59.8,27.99,East,83,0.0,1.1,61,0.00,,,0.00,WSDL version 420,2013-08-23 00:23:00,
2013-08-22 20:28:00,73.8,59.5,27.99,SE,124,2.0,3.1,61,0.00,,,0.00,WSDL version 420,2013-08-23 00:28:00,
2013-08-22 20:33:00,73.7,59.9,27.99,WSW,248,0.0,3.1,62,0.00,,,0.00,WSDL version 420,2013-08-23 00:33:00,
2013-08-22 20:38:00,73.3,59.5,27.99,ENE,75,0.7,3.1,62,0.00,,,0.00,WSDL version 420,2013-08-23 00:38:00,
2013-08-22 20:43:00,73.2,59.9,27.99,WSW,255,0.0,1.1,63,0.00,,,0.00,WSDL version 420,2013-08-23 00:43:00,
2013-08-22 20:48:00,73.1,59.9,27.99,ENE,68,0.0,0.0,64,0.00,,,0.00,WSDL version 420,2013-08-23 00:48:00,
2013-08-22 20:53:00,72.9,60.0,27.99,NE,38,0.0,0.0,64,0.00,,,0.00,WSDL version 420,2013-08-23 00:53:00,
2013-08-22 20:58:00,72.9,60.1,27.99,North,360,0.0,0.0,65,0.00,,,0.00,WSDL version 420,2013-08-23 00:58:00,
2013-08-22 21:03:00,72.6,60.1,27.99,WNW,293,0.0,1.1,65,0.00,,,0.00,WSDL version 420,2013-08-23 01:03:00,
2013-08-22 21:08:00,72.4,60.0,27.99,NE,53,0.0,1.1,65,0.00,,,0.00,WSDL version 420,2013-08-23 01:08:00,
2013-08-22 21:13:00,72.4,60.2,27.99,SSW,208,0.0,0.9,66,0.00,,,0.00,WSDL version 420,2013-08-23 01:13:00,
2013-08-22 21:18:00,72.3,60.3,27.99,South,191,0.4,0.9,66,0.00,,,0.00,WSDL version 420,2013-08-23 01:18:00,
2013-08-22 21:23:00,72.3,60.3,27.99,WSW,248,0.6,0.9,66,0.00,,,0.00,WSDL version 420,2013-08-23 01:23:00,
2013-08-22 21:28:00,72.1,60.5,28.02,ENE,68,0.0,0.9,67,0.00,,,0.00,WSDL version 420,2013-08-23 01:28:00,
2013-08-22 21:33:00,72.0,60.4,28.02,NE,45,0.0,0.0,67,0.00,,,0.00,WSDL version 420,2013-08-23 01:33:00,
2013-08-22 21:38:00,71.8,60.3,28.02,NE,45,0.0,0.0,67,0.00,,,0.00,WSDL version 420,2013-08-23 01:38:00,
2013-08-22 21:43:00,71.7,60.2,28.02,NE,45,0.0,0.0,67,0.00,,,0.00,WSDL version 420,2013-08-23 01:43:00,
2013-08-22 21:48:00,71.5,60.4,28.02,NE,45,0.0,0.0,68,0.00,,,0.00,WSDL version 420,2013-08-23 01:48:00,
2013-08-22 21:53:00,71.5,60.5,28.02,NE,45,0.0,0.0,69,0.00,,,0.00,WSDL version 420,2013-08-23 01:53:00,
2013-08-22 21:58:00,71.3,60.6,28.02,ENE,68,0.0,0.9,69,0.00,,,0.00,WSDL version 420,2013-08-23 01:58:00,
2013-08-22 22:03:00,71.1,60.4,28.02,SW,218,0.0,0.9,69,0.00,,,0.00,WSDL version 420,2013-08-23 02:03:00,
2013-08-22 22:08:00,70.8,60.1,28.02,South,173,0.6,1.6,69,0.00,,,0.00,WSDL version 420,2013-08-23 02:08:00,
2013-08-22 22:13:00,70.7,60.0,28.02,ESE,113,0.0,1.6,69,0.00,,,0.00,WSDL version 420,2013-08-23 02:13:00,
2013-08-22 22:18:00,70.7,60.3,28.02,ESE,113,0.0,0.0,70,0.00,,,0.00,WSDL version 420,2013-08-23 02:18:00,
2013-08-22 22:23:00,70.6,60.4,28.02,ESE,113,0.0,0.0,70,0.00,,,0.00,WSDL version 420,2013-08-23 02:23:00,
2013-08-22 22:28:00,70.7,60.4,28.02,ESE,113,0.0,0.0,70,0.00,,,0.00,WSDL version 420,2013-08-23 02:28:00,
2013-08-22 22:33:00,70.5,60.3,28.02,NE,45,0.0,0.0,70,0.00,,,0.00,WSDL version 420,2013-08-23 02:33:00,
2013-08-22 22:43:00,70.2,59.9,28.02,NNE,23,0.0,0.0,70,0.00,,,0.00,WSDL version 420,2013-08-23 02:43:00,
2013-08-22 22:48:00,70.3,60.3,28.02,NNE,23,0.0,0.0,71,0.00,,,0.00,WSDL version 420,2013-08-23 02:48:00,
2013-08-22 22:53:00,70.3,60.5,28.02,NNE,23,0.0,0.0,71,0.00,,,0.00,WSDL version 420,2013-08-23 02:53:00,
2013-08-22 22:58:00,70.2,60.3,28.02,NNE,23,0.0,0.0,71,0.00,,,0.00,WSDL version 420,2013-08-23 02:58:00,
2013-08-22 23:03:00,70.1,60.3,28.02,WNW,300,0.0,0.0,71,0.00,,,0.00,WSDL version 420,2013-08-23 03:03:00,
2013-08-22 23:13:00,69.8,60.0,28.02,NNE,23,0.0,0.0,71,0.00,,,0.00,WSDL version 420,2013-08-23 03:13:00,
2013-08-22 23:23:00,69.5,60.1,28.02,NNE,23,0.0,0.0,72,0.00,,,0.00,WSDL version 420,2013-08-23 03:23:00,
2013-08-22 23:28:00,69.4,60.0,28.02,NNE,23,0.0,0.0,72,0.00,,,0.00,WSDL version 420,2013-08-23 03:28:00,
2013-08-22 23:38:00,69.4,60.3,28.02,NNE,23,0.0,0.0,73,0.00,,,0.00,WSDL version 420,2013-08-23 03:38:00,
2013-08-22 23:48:00,69.2,60.2,28.02,NNE,23,0.0,0.0,73,0.00,,,0.00,WSDL version 420,2013-08-23 03:48:00,
2013-08-22 23:53:00,69.0,60.0,28.02,NNE,23,0.0,0.0,73,0.00,,,0.00,WSDL version 420,2013-08-23 03:53:00,
2013-08-22 23:58:00,68.9,59.9,28.02,SE,143,0.0,0.0,73,0.00,,,0.00,WSDL version 420,2013-08-23 03:58:00,